No identification:

 

1997 AE12                                                                   

Epoch 2003 June 10.0 TT = JDT 2452800.5                 MPC      

M 332.17659              (2000.0)            P               Q

n   0.27057268     Peri.   58.58354     +0.99355351     -0.08992695

a   2.3674461      Node   306.48685     +0.05022339     +0.89504063

e   0.5551360      Incl.    4.92512     +0.10163187     +0.43682424

P   3.64           H   17.8           G   0.15           U   0

Residuals in seconds of arc 

920728 260  0.9-  1.2-    030808 J87  0.1-  0.4+    030823 469  0.4+  0.1-  

920728 260  0.2+  1.4-    030809 379  0.4+  0.4-    030824 557  0.0   0.2+  

970110 691  0.6+  0.7-    030809 379  0.1+  0.2+    030824 557  0.0   0.0   

970110 691  1.2+  0.5-    030809 379  0.5+  0.3+    030824 118  0.2-  0.7+  

970110 691  0.7+  0.4-    030809 379  0.2-  0.3-    030824 118  0.3-  0.6+  

970111 691  0.4+  0.5-    030809 379  0.6+  0.2+    030824 118  0.3-  0.5+  

970111 691  0.5+  0.1-    030809 379  0.4-  0.2-    030824 118  0.4+  0.8+  

970111 691  0.6+  1.2-    030809 130  0.3-  0.2+    030824 118  0.1+  0.6+  

970115 658  0.4-  0.6+    030809 130  0.3-  0.4+    030824 557  0.0   0.1-  

970115 658  1.0-  0.9+    030809 130  0.2-  0.1+    030824 557  0.0   0.1+  

970115 658  0.3-  0.0     030809 130  0.2-  0.3+    030824 557  0.0   0.1+  

970116 691  0.0   0.4-    030810 608  0.1+  0.2-    030824 557  0.0   0.0   

970116 691  0.3+  0.1-    030810 608  0.4+  0.3-    030825 557  0.1-  0.0   

970116 691  0.1+  0.6-    030810 608  0.1+  0.2-    030825 557  0.0   0.2+  

030625 699  0.1-  0.4-    030810 127  0.4-  0.5+    030825 644  0.2-  0.0   

030625 699  0.6+  0.2-    030810 127  0.5-  0.2+    030825 644  0.1-  0.2+  

030625 699  0.3-  0.6+    030810 127  0.7-  0.2+    030825 644  0.3-  0.0   

030625 699  0.0   0.3+    030810 127  0.7-  0.3+    030825 644  0.0   0.2+  

030626 246  0.4+  0.9-    030811 240  0.1+  0.3+    030825 644  0.1-  0.1+  

030626 246  0.5-  0.0     030811 240  0.2+  0.3+    030825 644  0.1-  0.1+  

030626 246  0.1+  0.5-    030811 240  0.2+  0.4+    030825 J87  0.2-  0.3-  

030626 246  0.6+  0.5-    030811 240  0.2+  0.3+    030825 J87  0.1+  0.2-  

030626 246  0.3+  0.4-    030811 240  0.2+  0.4+    030825 J87  0.5+  0.2-  

030626 246  1.0-  0.1+    030811 204  0.2-  0.3+    030826 557  0.0   0.1-  

030626 448  0.3+  0.4-    030811 204  0.0   0.4+    030826 557  0.0   0.1-  

030626 448  0.1+  0.3-    030811 204  0.2+  0.5+    030826 557  0.1+  0.1-  

030626 448  0.0   0.0     030811 204  0.1+  0.3+    030826 557  0.1+  0.2-  

030626 926  0.3-  0.2-    030811 204  0.1-  0.4+    030826 557  0.3+  0.1-  

030626 926  0.1-  0.2-    030812 127  0.4-  0.6-    030826 557  0.2+  0.2-  

030626 926  0.2-  0.8-    030812 127  0.0   0.6-    030827 196  0.3+  0.1+  

030626 428  0.2-  0.3+    030812 127  0.5-  0.4-    030827 046  0.5+  0.2+  

030626 428  0.8-  0.2+    030813 938  0.2+  0.9-    030827 046  0.5+  0.1+  

030626 428  0.1-  0.6+    030813 938  0.5-  0.4+    030827 046  0.4+  0.3+  

030702 704  0.1+  0.4-    030813 938  1.0-  0.4-    030827 046  0.3+  0.1+  

030702 704  0.4-  1.0-    030813 938  1.2-  0.3+    030827 046  0.3+  0.0   

030702 704  0.5-  0.5-    030813 938  0.1-  0.2-    030827 046  0.3+  0.0   

030702 704  0.1-  0.6-    030813 938  0.2+  0.4-    030827 046  0.3+  0.0   

030704 670  0.5-  1.3-    030813 938  0.9-  0.0     030827 046  0.3+  0.1+  

030704 670  0.3-  0.2-    030813 938  0.2-  0.9-    030827 557  0.0   0.1-  

030704 670  0.9+  0.2-    030813 938  1.2+  0.0     030827 196  0.7+  0.2+  

030705 J87 (3.0-  1.7-)   030814 127  0.1-  0.2-    030827 557  0.0   0.0   

030705 J87  1.0+  0.5-    030814 127  0.0   0.0     030827 196  0.6+  0.1-  

030705 J87  0.4-  0.2-    030814 127  0.0   0.0     030827 557  0.1+  0.0   

030705 691  0.1+  0.1-    030814 127  0.0   0.0     030827 198  0.4-  0.3-  

030705 691  0.3-  0.0     030814 127  0.1-  0.1+    030827 198  0.2-  0.3-  

030705 691  0.1+  0.1-    030817 726  0.2+  0.2-    030827 198  0.2-  0.2-  

030708 644  0.1+  0.0     030817 726  0.1-  0.1+    030827 198  0.1-  0.3-  

030708 644  0.0   0.2-    030817 726  0.1+  0.4+    030827 198  0.2-  0.3-  

030708 644  0.1-  0.3-    030818 J93  1.6-  0.3-    030827 557  0.1-  0.0   

030711 204  0.9-  0.5-    030818 J93  0.4+  0.2+    030827 557  0.1-  0.1+  

030711 204  0.5-  0.4-    030818 J93 (1.5+  2.1+)   030828 557  0.1-  0.1+  

030711 204  0.2-  0.4+    030818 J93  1.1+  1.2+    030828 557  0.1-  0.0   

030711 204  0.3-  0.3-    030819 151  0.1+  0.2-    030828 704  0.7+  0.6+  

030712 170  0.3+  0.2-    030819 151  0.1-  0.2-    030828 704  0.6+  1.1+  

030712 170  0.5+  0.0     030819 151  0.2+  0.4-    030828 704  0.7+  1.3+  

030712 170  0.4+  0.4+    030819 151  0.2-  0.2-    030828 704  0.7+  1.5+  

030718 E14  0.8-  0.9-    030819 151  0.1-  0.2-    030828 704  0.8+  1.4+  

030718 E14  0.0   0.9+    030819 151  0.0   0.3-    030828 557  0.2-  0.1-  

030718 E14  0.2-  0.1-    030819 151  0.1+  0.4-    030828 557  0.2-  0.0   

030718 215  0.6+  0.1+    030819 151  0.0   0.2-    030828 557  0.2-  0.1-  

030718 215  0.1+  0.3-    030819 151  0.1-  0.3-    030828 557  0.0   0.0   

030718 215  0.6+  0.0     030819 151  0.2-  0.3-    030828 557  0.1-  0.0   

030719 952  0.3-  0.2+    030819 151  0.2-  0.3-    030828 557  0.2-  0.1+  

030719 952  0.3-  0.2+    030819 151  0.1+  0.0     030829 379  0.5+  0.1+  

030719 952  0.1-  0.3+    030819 151  0.1+  0.0     030829 379  0.2-  0.3-  

030719 952  0.9-  0.3+    030819 151  0.1+  0.1-    030829 379  0.1+  0.2-  

030719 859  0.0   1.6+    030819 151  0.0   0.0     030829 379  0.3+  0.5-  

030719 859  0.3+  0.4-    030820 232  0.1+  0.1+    030829 379  0.3+  0.1-  

030719 859  0.9-  0.4-    030820 232  0.1+  0.2+    030829 379  0.7+  0.1-  

030722 599  0.1+  0.1+    030820 232  0.3-  0.2+    030829 J87  0.3-  0.3-  

030722 599  0.2+  0.6+    030820 232  0.5+  0.1+    030829 J87  0.2+  0.1-  

030723 599  0.1+  0.1+    030820 859  0.5+  0.5+    030829 J87  0.5+  0.2-  

030723 608  0.2+  0.3-    030820 859 (1.8+  2.3+)   030901 557  0.0   0.1+  

030723 608  0.3+  0.5-    030820 859  0.3+  0.3-    030901 557  0.1-  0.0   

030723 608  0.4+  0.3-    030820 642  0.1+  0.2-    030901 557  0.2-  0.2-  

030724 644  0.2-  0.3+    030820 642  0.5+  0.1+    030901 557  0.0   0.0   

030724 644  0.1-  0.3+    030820 642 (2.0+  0.7+)   030901 557  0.0   0.1-  

030724 644  0.1-  0.3+    030820 300  0.6-  0.6+    030901 557  0.0   0.2+  

030725 704  0.2-  0.5+    030820 300  0.5-  0.2+    030902 379  0.8-  0.5-  

030725 704  0.0   0.2+    030820 300  0.6-  0.2-    030902 379  0.4-  0.3+  

030725 704  0.1-  0.4+    030820 300  0.2-  0.7+    030902 379  0.3+  0.2-  

030725 704  0.1+  0.4+    030820 300  0.2+  0.3+    030902 379  0.2-  0.2-  

030725 704  0.1-  0.3+    030820 300  0.4-  0.2+    030902 379  0.7-  0.5-  

030802 J93  0.2-  0.7-    030820 557  0.2-  0.0     030902 379  0.1-  0.6-  

030802 J93  0.3-  0.5+    030820 557  0.4-  0.1-    030903 151  0.1-  0.2-  

030802 J93  0.9+  0.0     030820 557  0.0   0.1+    030903 151  0.1-  0.1-  

030803 941  0.3+  0.1+    030820 557  0.0   0.0     030903 151  0.2-  0.0   

030803 941  0.3+  0.1+    030821 557  0.0   0.1+    030903 151  0.1-  0.0   

030803 941  0.4+  0.0     030821 557  0.1-  0.3+    030903 151  0.1-  0.1-  

030803 941  0.4+  0.1+    030821 557  0.1-  0.1+    030903 151  0.3-  0.1-  

030803 941  0.2+  0.1+    030821 672  0.8-  0.5-    030903 151  0.0   0.2-  

030803 106  0.4-  0.2+    030821 557  0.1+  0.1+    030903 151  0.1-  0.2-  

030803 106  0.2-  0.1+    030821 557  0.3-  0.0     030903 151  0.1+  0.1-  

030803 106  0.2-  0.1+    030821 557  0.3-  0.2-    030903 151  0.2+  0.1+  

030803 198  0.3+  0.0     030822 557  0.1-  0.1+    030903 557  0.0   0.0   

030804 198  0.2+  0.0     030822 557  0.3-  0.0     030903 557  0.0   0.1+  

030804 198  0.4+  0.1+    030822 557  0.2-  0.3+    030903 557  0.1+  0.1+  

030804 198  0.4+  0.2+    030822 557  0.2-  0.2-    030903 557  0.0   0.1+  

030804 198  0.1-  0.1+    030822 355  0.2+  0.5-    030903 379  0.3+  0.2-  

030804 198  0.0   0.2+    030822 355  0.4+  0.6-    030903 379  0.5-  0.3+  

030804 151  0.1+  0.2+    030822 355  0.0   0.4-    030903 379  0.3-  0.5+  

030804 151  0.4-  0.6+    030822 355  0.1+  0.2-    030903 379  0.3-  0.7+  

030804 151  0.2-  0.5+    030822 557  0.0   0.3-    030903 240  0.1-  0.0   

030804 151  0.1-  0.4+    030822 557  0.3-  0.3-    030903 240  0.0   0.2+  

030804 151  0.0   0.4+    030822 557  0.1+  0.4-    030903 240  0.1-  0.1+  

030804 151  0.0   0.2+    030822 557  0.2+  0.5-    030903 240  0.0   0.0   

030804 151  0.2+  0.3+    030822 557  0.2+  0.3-    030903 240  0.2+  0.1-  

030804 151  0.1+  0.4+    030822 557  0.1+  0.3-    030903 240  0.3-  0.1-  

030805 557  0.2+  0.1+    030822 557  0.3+  0.4-    030904 198  0.2-  0.3-  

030805 557  0.0   0.0     030822 557  0.4+  0.3-    030904 198  0.1-  0.0   

030805 557  0.1+  0.2+    030823 118  0.3+  0.2-    030904 198  0.3-  0.2-  

030805 557  0.1+  0.2+    030823 118  0.4+  0.1-    030904 198  0.3-  0.2-  

030805 170  0.4-  0.5+    030823 557  0.4+  0.2-    030904 198  0.3-  0.1-  

030805 170  0.4-  0.4+    030823 118  0.5+  0.2-    030904 198  0.2-  0.2-  

030805 170  0.3-  0.2+    030823 118  0.4+  0.0     030904 151  0.0   0.1-  

030805 704 (2.4+  1.5-)   030823 557  0.3+  0.3-    030904 151  0.1+  0.1-  

030805 704 (2.2+  1.5-)   030823 557  0.5+  0.2-    030904 151  0.1-  0.0   

030805 704 (2.5+  1.3-)   030823 557  0.4+  0.2-    030904 151  0.1-  0.0   

030805 704 (2.4+  1.5-)   030823 557  0.4+  0.1-    030904 151  0.2-  0.1-  

030805 469  0.1-  0.2-    030823 151  0.4+  0.4+    030904 151  0.2-  0.0   

030805 469  0.1-  0.1-    030823 151  0.4+  0.4+    030904 151  0.0   0.0   

030805 469  0.2-  0.1+    030823 151  0.3+  0.4+    030904 151  0.1-  0.1-  

030805 469  0.2-  0.0     030823 151  0.5+  0.3+    030904 151  0.0   0.0   

030805 469  0.2-  0.2-    030823 151  0.2-  0.3-    030904 151  0.1-  0.1-  

030805 469  0.0   0.1+    030823 151  0.2-  0.2-    030904 151  0.3-  0.2-  

030806 J93  0.5-  1.5-    030823 151  0.1-  0.1-    030904 151  0.1-  0.1-  

030806 J93 (3.3-  1.9-)   030823 151  0.2-  0.4-    030904 151  0.2-  0.1-  

030806 J93 (5.5-  0.5+)   030823 151  0.2-  0.1-    030904 151  0.0   0.2-  

030806 J93 (1.4+  3.2+)   030823 151  0.1-  0.3-    030905 557  0.0   0.1+  

030806 379  0.2+  0.3+    030823 151  0.1-  0.2-    030905 557  0.1-  0.1+  

030806 379  0.4+  0.2+    030823 151  0.1-  0.2-    030905 557  0.0   0.0   

030806 379  0.1+  0.2-    030823 151  0.1-  0.3-    030905 557  0.3-  0.0   

030806 379  0.1-  0.2-    030823 151  0.2-  0.3-    030905 557  0.1-  0.1+  

030806 379  0.3-  0.0     030823 151  0.1-  0.1-    030905 379  0.1+  0.3+  

030806 379  0.4+  0.3-    030823 151  0.0   0.3-    030905 379  0.6-  0.0   

030806 379  0.5+  0.6-    030823 151  0.0   0.3-    030905 379  0.1+  0.4+  

030806 379  0.0   0.3-    030823 151  0.1-  0.2-    030905 379  0.0   0.2+  

030807 557  0.3-  0.0     030823 151  0.0   0.2-    030905 379  0.5-  0.4+  

030807 557  0.3-  0.1+    030823 151  0.1-  0.4-    030906 379  0.3+  0.5-  

030807 557  0.2-  0.0     030823 469  0.2+  0.3+    030906 379  0.2+  0.1-  

030807 557  0.3-  0.0     030823 469  0.6+  0.7+    030906 379  0.1-  0.4-  

030807 557  0.4-  0.0     030823 469  0.4+  0.1+    030906 379  0.4-  0.2-  

030808 J87  0.6-  0.2+    030823 469  0.6+  0.3+                            

030808 J87  0.7-  0.1+    030823 469  0.4+  0.1+                            

 



 

NAKANO

         **** Don't distribute anyone except personal use only ****

                (C) Copyright 2003 OAA/ComputingSection

write mail from CFAD0::NAKANO on 2003-09-07 05:05:41(JST).



߂܂B